Hourly Weather Roundup
Issued by NWS Central Illinois

Home | Current Version | Previous Version | Text Only | Print | Product List | Glossary On
Versions: 1 2 3 4 5 6 7 8 9 10 11 12 13 14 15 16 17 18 19 20 21 22 23 24 25 26 27 28 29 30 31 32 33 34 35 36 37 38 39 40 41 42 43 44 45 46 47 48 49 50
426
NZUS43 KILX 250110
HWRILX

AREA WEATHER ROUNDUP
NATIONAL WEATHER SERVICE, LINCOLN IL
800 PM CDT FRI MAR 24 2017


CITY           SKY/WX    TMP DP  RH WIND       PRES   REMARKS
BLOOMINGTON    CLOUDY    67  56  67 S15       29.98R
CHAMPAIGN      CLOUDY    67  54  63 S14       30.01R
DECATUR        MOCLDY    68  55  63 S18       30.00R
EFFINGHAM      CLOUDY    69  57  65 S10       30.06R
FLORA          CLOUDY    66  57  73 S6        30.05R
GALESBURG      CLOUDY    56  54  92 NW5       29.97F
JACKSONVILLE   CLOUDY    61  53  74 N6        29.98R
LACON          CLOUDY    65  49  55 W16       29.98R
LAWRENCEVILLE  PTCLDY    65  54  67 S8        30.08R
LITCHFIELD     CLOUDY    66  57  72 S8        30.00R
$$


CITY           SKY/WX    TMP DP  RH WIND       PRES   REMARKS
LINCOLN        CLOUDY    68  51  55 W3        29.99R
MACOMB         RAIN      56  55  96 NE5       29.98S
MATTOON        CLOUDY    68  56  65 S12       30.03R
MT CARMEL AP   MOCLDY    65  52  63 S7        30.07R
OLNEY-NOBLE AP CLOUDY    66  59  77 S8        30.06R
PARIS          CLOUDY    65  56  72 S10       30.05S
PEORIA         CLOUDY    64  52  64 NW8       29.99R
PONTIAC        CLOUDY    71  57  62 S23G32    29.98R
RANTOUL        CLOUDY    69  57  65 S15       30.00S
SPRINGFIELD    CLOUDY    71  51  49 NW6       29.98R
TAYLORVILLE    CLOUDY    66  55  68 S12       30.00R
$$

...REGIONAL REPORTS...


CITY           SKY/WX    TMP DP  RH WIND       PRES   REMARKS
CHICAGO O`HARE LGT RAIN  43  36  76 NE10      30.05R
KANKAKEE       CLOUDY    67  54  62 S13       29.98R
MOLINE         LGT RAIN  57  53  86 NW5       29.99R
MOUNT STERLING PTCLDY    57  54  87 CALM      29.96R
MOUNT VERNON   CLOUDY    68  56  65 S8        30.05R
PITTSFIELD     CLOUDY    60  55  83 NE5       29.97R
QUINCY         CLOUDY    56  56 100 CALM      29.97R FOG
ROCKFORD       LGT RAIN  50  41  71 NE12      30.03R
$$


CITY           SKY/WX    TMP DP  RH WIND       PRES   REMARKS
BURLINGTON     CLOUDY    57  56  96 E3        29.95F
CEDAR RAPIDS   CLOUDY    50  50 100 NW7       29.97R FOG
DES MOINES     CLOUDY    47  44  90 NE14      29.99R FOG
KIRKSVILLE     LGT RAIN  57  57 100 S7        29.95S FOG
OTTUMWA        LGT RAIN  56  56 100 E5        29.94S FOG
ST LOUIS       CLOUDY    73  54  51 S13       29.97R
$$


CITY           SKY/WX    TMP DP  RH WIND       PRES   REMARKS
TERRE HAUTE    CLOUDY    68  53  58 S9        30.07R
EVANSVILLE     CLOUDY    70  51  51 S6        30.08R
INDIANAPOLIS   CLOUDY    66  52  60 SW12      30.07R
LAFAYETTE      CLOUDY    67  54  63 SW9       30.02R
MADISON        CLOUDY    40  35  83 N17       30.06R WCI  31
MILWAUKEE      CLOUDY    38  35  89 N15       30.05R WCI  29
$$






USA.gov is the U.S. government's official web portal to all federal, state and local government web resources and services.